[[{"header":{"parameterUnit":"m.s-1","parameterCategory":1,"la1":30.2991,"la2":30.254,"lo1":-89.0895,"lo2":-89.0444,"dy":0.0017,"dx":0.0017,"nx":28,"ny":28,"refTime":"2026-02-26T09:00:00:Z","depth":0,"parameterNumber":2,"parameterNumberName":"U-component_of_WINDS"},"data":[0,0,0,0,0,0,0,0,0,0,0,0,0,0,0,0,0,0,0,0,0,0,0,0,0,0,0,0,0,0,0,0,0,0,0,0,0,0,0,0,0,0,0,0,0,0,0,0,0,0,0,0,0,0,0,0,0,0,0.8395,0.8395,0,0.8393,0.8393,0.8393,0.8423,0.8424,0.8425,0.8425,0.8424,0.8423,0.8423,0,0,0,0,0,0,0,0,0,0,0,0,0,0.8426,0.8425,0.8395,0.8395,0.8395,0.8393,0.8393,0.8393,0.8423,0.8424,0.8425,0.8426,0.8424,0.8424,0.8423,0,0,0,0,0,0,0,0,0,0,0,0,0,0.8417,0.8425,0.8395,0.8409,0.8411,0.8393,0.8393,0.8393,0.8423,0.8424,0.8425,0.8426,0.8425,0.8424,0.8422,0.8391,0,0,0.8419,0.8418,0,0,0,0,0,0,0,0,0.8417,0.8416,0.8407,0.8408,0.841,0.8409,0.8403,0.8392,0.8422,0.8418,0.8425,0.8427,0.8418,0.8418,0.8415,0.8391,0.8391,0.8419,0.8418,0.8418,0.8417,0,0,0,0,0,0,0,0.8418,0.8416,0.8394,0.8407,0.8409,0.8417,0.8417,0.8401,0.8411,0.8419,0.8421,0.842,0.8419,0.8416,0.8415,0.8391,0.8419,0.8418,0.8417,0.8417,0.8343,0.8342,0,0,0,0,0,0,0.8416,0.8416,0.8394,0.8394,0.8417,0.8415,0.8415,0.8408,0.8412,0.8413,0.8419,0.8422,0.8417,0.8416,0.8415,0.838,0.8418,0.8416,0.8416,0.8344,0.8343,0.8341,0,0,0,0,0,0,0.8417,0.8414,0.8394,0.8406,0.8404,0.8413,0.8405,0.8408,0.8404,0.8412,0.8414,0.8414,0.8418,0.8417,0.8397,0.838,0.8416,0.8415,0.8346,0.8344,0.8342,0.8309,0,0,0,0,0,0,0.8418,0.8414,0.8402,0.8405,0.8403,0.8376,0.8404,0.8407,0.8402,0.8405,0.8407,0.8409,0.8419,0.8399,0.8396,0.8379,0.8414,0.8347,0.8345,0.8343,0.8311,0.8306,0.8301,0,0,0,0,0,0.8419,0.8392,0.8401,0.8398,0.8388,0.8374,0.8373,0.8385,0.84,0.8389,0.8394,0.8409,0.8382,0.8396,0.8393,0.8376,0.8348,0.8345,0.8343,0.8314,0.8307,0.8301,0,0,0,0,0,0,0.8386,0.8393,0.8403,0.8376,0.8375,0.838,0.8365,0.8377,0.8372,0.8375,0.839,0.839,0.8369,0.837,0.8386,0.8347,0.8368,0.8365,0.8347,0.8341,0.8336,0.8337,0.8413,0,0,0,0,0,0.8376,0.8364,0.8371,0.8347,0.8345,0.8355,0.835,0.8359,0.8358,0.8358,0.8362,0.836,0.8352,0.8346,0.8339,0.8311,0.8313,0.8298,0.8293,0.8289,0.8286,0.8274,0.8268,0.8332,0.8332,0.8332,0,0,0.8354,0.8356,0.8348,0.834,0.834,0.8329,0.8354,0.8341,0.8333,0.8356,0.8338,0.8341,0.8341,0.8317,0.8307,0.8318,0.8269,0.8285,0.8282,0.8282,0.8271,0.8265,0.8259,0.833,0.8331,0.8331,0,0,0.831,0.831,0.8291,0.829,0.829,0.8297,0.8292,0.8296,0.8299,0.8281,0.8299,0.829,0.8274,0.8274,0.8272,0.8229,0.8243,0.8226,0.82,0.8188,0.8183,0.8179,0.8166,0.8161,0.8223,0.8223,0.8223,0,0.8284,0.8267,0.8279,0.8265,0.8262,0.8282,0.8264,0.8263,0.826,0.8258,0.827,0.8253,0.8254,0.8232,0.8222,0.8218,0.8215,0.8227,0.8183,0.8179,0.8175,0.8163,0.8157,0.8221,0.8221,0.8221,0.8221,0,0.8236,0.8224,0.8209,0.8206,0.8201,0.8185,0.8196,0.8189,0.8199,0.8205,0.8188,0.819,0.8184,0.8179,0.8188,0.8159,0.8167,0.818,0.8202,0.8167,0.8155,0.8151,0.8218,0.8219,0.8219,0.822,0,0,0.8171,0.8177,0.8171,0.8171,0.8173,0.8164,0.8149,0.8144,0.8139,0.8136,0.8126,0.8113,0.8126,0.8124,0.8133,0.8122,0.8091,0.8138,0.8138,0.8131,0.8062,0.8053,0.8047,0.81,0.8099,0.8098,0.8062,0,0.813,0.8105,0.8117,0.8091,0.8082,0.8101,0.8089,0.8089,0.8094,0.8087,0.8093,0.8085,0.8102,0.8101,0.8091,0.8097,0.8078,0.8099,0.8092,0.8091,0.8093,0.8041,0.8031,0.7997,0.8058,0.8057,0.8056,0,0.8079,0.8075,0.8048,0.8054,0.805,0.8039,0.8036,0.8028,0.8029,0.8034,0.8032,0.8044,0.8031,0.8052,0.8035,0.805,0.8047,0.805,0.8049,0.805,0.8073,0.8042,0.7986,0.7982,0.8049,0.805,0.805,0,0.8037,0.8025,0.8009,0.8008,0.8013,0.8005,0.8006,0.8009,0.8005,0.8002,0.8001,0.7996,0.7994,0.7991,0.8003,0.8016,0.7985,0.8006,0.799,0.799,0.7984,0.7985,0.7928,0.7979,0.7979,0.7979,0.7979,0,0.7991,0.7975,0.799,0.798,0.7963,0.7976,0.7959,0.7963,0.7965,0.7957,0.7973,0.7965,0.7979,0.7973,0.7982,0.7968,0.7966,0.7971,0.7974,0.797,0.797,0.797,0.7974,0.7978,0.7978,0.7978,0.7978,0,0.7942,0.7952,0.7935,0.7942,0.7943,0.793,0.7936,0.7928,0.7934,0.7924,0.7922,0.7932,0.7926,0.7937,0.7931,0.7937,0.7919,0.7924,0.7918,0.7921,0.7905,0.7907,0.7849,0.7843,0.7895,0.7894,0.7894,0,0.7913,0.7901,0.7907,0.7903,0.7904,0.7896,0.7893,0.7906,0.7903,0.7904,0.7896,0.7891,0.7888,0.7877,0.7884,0.788,0.7887,0.7867,0.7887,0.7885,0.789,0.7891,0.7891,0.7863,0.7863,0.7862,0.7862,0,0.7861,0.7867,0.7862,0.7859,0.7855,0.7853,0.7853,0.7849,0.7863,0.7858,0.7852,0.7849,0.7844,0.784,0.7838,0.7841,0.7854,0.7855,0.7852,0.785,0.7848,0.7851,0.7909,0.7857,0.7857,0.7858,0.7858,0.7858,0.7823,0.7814,0.7817,0.7812,0.7813,0.7812,0.7805,0.7811,0.7807,0.7804,0.7812,0.7804,0.7807,0.7807,0.7808,0.7803,0.7812,0.7806,0.7805,0.7804,0.7803,0.7847,0.7802,0.7802,0.7803,0.7803,0.7803,0,0.7774,0.7777,0.7772,0.7771,0.7767,0.778,0.778,0.7776,0.777,0.7771,0.7768,0.7762,0.7758,0.7765,0.7763,0.7757,0.7763,0.7756,0.7758,0.7759,0.7794,0.7798,0.7752,0.7752,0.7752,0.7752,0.7752,0.7752,0.7748,0.7735,0.7741,0.7729,0.7732,0.7725,0.7725,0.7725,0.7726,0.7719,0.7716,0.7721,0.7725,0.7723,0.7721,0.7723,0.7722,0.7713,0.7718,0.7751,0.7756,0.7761,0.7765,0.7712,0.7712,0.7684,0.7683,0.7683]},{"header":{"parameterUnit":"m.s-1","parameterCategory":1,"la1":30.2991,"la2":30.254,"lo1":-89.0895,"lo2":-89.0444,"dy":0.0017,"dx":0.0017,"nx":28,"ny":28,"refTime":"2026-02-26T09:00:00:Z","depth":0,"parameterNumber":3,"parameterNumberName":"V-component_of_WINDS"},"data":[0,0,0,0,0,0,0,0,0,0,0,0,0,0,0,0,0,0,0,0,0,0,0,0,0,0,0,0,0,0,0,0,0,0,0,0,0,0,0,0,0,0,0,0,0,0,0,0,0,0,0,0,0,0,0,0,0,0,4.9097,4.9097,0,4.9109,4.9109,4.9109,4.9158,4.9159,4.916,4.9161,4.9169,4.9168,4.9168,0,0,0,0,0,0,0,0,0,0,0,0,0,4.9114,4.9113,4.9097,4.9097,4.9097,4.9109,4.9109,4.9109,4.9158,4.9159,4.916,4.9162,4.9169,4.9168,4.9167,0,0,0,0,0,0,0,0,0,0,0,0,0,4.9114,4.9113,4.9097,4.9123,4.9125,4.9109,4.9109,4.9109,4.9157,4.9159,4.9161,4.9162,4.917,4.9169,4.9167,4.9126,0,0,4.9164,4.9163,0,0,0,0,0,0,0,0,4.9114,4.9114,4.9119,4.9121,4.9124,4.9134,4.9118,4.9115,4.9157,4.9145,4.9161,4.9163,4.9156,4.9156,4.9154,4.9126,4.9127,4.9163,4.9163,4.9162,4.9162,0,0,0,0,0,0,0,4.9114,4.9113,4.9101,4.9119,4.9122,4.9133,4.9135,4.9118,4.914,4.9146,4.915,4.9151,4.9157,4.9155,4.9155,4.9127,4.9163,4.9162,4.9162,4.9161,4.907,4.9068,0,0,0,0,0,0,4.9111,4.9113,4.9101,4.9102,4.9123,4.9132,4.9134,4.9129,4.9141,4.9144,4.9149,4.9153,4.9157,4.9156,4.9155,4.9111,4.9162,4.9161,4.916,4.9072,4.907,4.9068,0,0,0,0,0,0,4.9111,4.9109,4.9101,4.9109,4.9108,4.913,4.9123,4.9128,4.9126,4.9143,4.9147,4.9143,4.9158,4.9157,4.9134,4.9111,4.916,4.9159,4.9074,4.9071,4.9069,4.9019,0,0,0,0,0,0,4.9111,4.9109,4.9093,4.9108,4.9108,4.9079,4.9122,4.9127,4.9124,4.9129,4.9139,4.9142,4.9159,4.9136,4.9133,4.9111,4.9158,4.9076,4.9072,4.9069,4.9022,4.9015,4.9008,0,0,0,0,0,4.9112,4.9077,4.9092,4.9091,4.9089,4.9078,4.9078,4.91,4.9122,4.9107,4.9119,4.9141,4.9114,4.9133,4.913,4.9107,4.9077,4.9073,4.907,4.9026,4.9016,4.9008,0,0,0,0,0,0,4.9056,4.9079,4.9096,4.9065,4.907,4.9086,4.9067,4.9088,4.9085,4.909,4.9116,4.9118,4.9092,4.9097,4.9117,4.907,4.91,4.9095,4.9067,4.9059,4.9052,4.9051,4.9157,0,0,0,0,0,4.9041,4.9031,4.9051,4.9022,4.9023,4.9045,4.9041,4.9058,4.9063,4.9064,4.9074,4.9077,4.9071,4.9065,4.9058,4.9024,4.9028,4.9007,4.9,4.8994,4.899,4.8975,4.8967,4.9055,4.9055,4.9055,0,0,4.9008,4.9019,4.9011,4.9011,4.9016,4.9006,4.9046,4.9032,4.9025,4.9062,4.9042,4.905,4.9055,4.9027,4.9015,4.9031,4.8966,4.8989,4.8984,4.8983,4.8971,4.8962,4.8955,4.9053,4.9053,4.9054,0,0,4.8943,4.895,4.8929,4.8934,4.8943,4.8959,4.8953,4.8968,4.8975,4.8956,4.8985,4.8977,4.8962,4.8967,4.8967,4.8909,4.893,4.8906,4.8868,4.8854,4.8847,4.8841,4.8823,4.8816,4.8901,4.8901,4.8901,0,4.8901,4.8887,4.8914,4.89,4.89,4.8937,4.8916,4.8919,4.8925,4.8924,4.8942,4.8928,4.8934,4.8909,4.8896,4.8894,4.889,4.8905,4.8846,4.8841,4.8835,4.8818,4.8811,4.8898,4.8899,4.8899,4.8899,0,4.8836,4.8827,4.8808,4.8816,4.8814,4.8796,4.8821,4.8815,4.8834,4.8848,4.883,4.8839,4.8837,4.8832,4.8848,4.8811,4.8821,4.8842,4.8873,4.8824,4.8808,4.8802,4.8894,4.8895,4.8896,4.8897,0,0,4.8735,4.8761,4.8754,4.876,4.8775,4.8767,4.8752,4.8753,4.8749,4.8753,4.8742,4.8731,4.8753,4.8753,4.877,4.8757,4.8715,4.8781,4.8782,4.877,4.8678,4.8663,4.8655,4.873,4.8729,4.8728,4.8678,0,4.8675,4.8653,4.8678,4.865,4.8643,4.8679,4.8667,4.8674,4.8688,4.8684,4.8698,4.8691,4.8718,4.8719,4.8708,4.8722,4.8697,4.8726,4.8721,4.872,4.872,4.8647,4.863,4.8583,4.8672,4.8671,4.867,0,4.8602,4.8606,4.8578,4.8599,4.8597,4.8585,4.859,4.8585,4.8596,4.8607,4.8609,4.8632,4.8619,4.865,4.8634,4.8653,4.8653,4.866,4.8659,4.866,4.8693,4.8647,4.8568,4.8562,4.8661,4.8661,4.8662,0,4.8534,4.8532,4.8516,4.852,4.8542,4.8534,4.8543,4.8555,4.8556,4.856,4.8561,4.8562,4.8563,4.8564,4.8587,4.8606,4.857,4.8601,4.8579,4.8579,4.857,4.857,4.8491,4.8567,4.8567,4.8567,4.8567,0,4.8466,4.8448,4.8487,4.8477,4.8459,4.8489,4.847,4.8482,4.8494,4.8488,4.8518,4.8512,4.8542,4.8539,4.8556,4.8543,4.8542,4.8551,4.8556,4.8549,4.8549,4.855,4.8554,4.8565,4.8566,4.8566,4.8566,0,4.8387,4.8412,4.8398,4.8422,4.8428,4.8413,4.8434,4.8427,4.8444,4.8436,4.8435,4.8461,4.846,4.8483,4.8485,4.8497,4.8476,4.8486,4.8473,4.8477,4.8455,4.8458,4.8375,4.8367,4.8446,4.8445,4.8444,0,4.8342,4.833,4.8354,4.8354,4.8362,4.8359,4.8361,4.8391,4.8391,4.8405,4.8396,4.8398,4.8401,4.8397,4.8416,4.8418,4.843,4.8401,4.843,4.8425,4.8432,4.8433,4.8434,4.8395,4.8394,4.8393,4.8392,0,4.8261,4.8275,4.8277,4.8285,4.8287,4.8293,4.8302,4.8299,4.8332,4.8331,4.8332,4.8334,4.8339,4.8341,4.8348,4.8357,4.838,4.8383,4.8379,4.8372,4.8366,4.8372,4.8458,4.8385,4.8385,4.8386,4.8386,4.8387,4.8199,4.8192,4.8209,4.8211,4.8222,4.823,4.8226,4.8244,4.8245,4.8253,4.827,4.8268,4.8283,4.8295,4.8303,4.8302,4.8316,4.8309,4.8307,4.8306,4.8303,4.8366,4.8303,4.8303,4.8303,4.8304,4.8304,0,4.8122,4.8136,4.8138,4.8151,4.8154,4.8178,4.819,4.819,4.8189,4.8201,4.8205,4.8207,4.821,4.8231,4.8236,4.8232,4.8243,4.8233,4.8234,4.8236,4.8288,4.8293,4.8224,4.8224,4.8224,4.8224,4.8224,4.8224,4.8082,4.8072,4.8089,4.8085,4.8099,4.81,4.8105,4.8113,4.8124,4.8126,4.8129,4.8144,4.816,4.8168,4.8172,4.8178,4.818,4.8166,4.8176,4.8224,4.8232,4.8239,4.8244,4.8166,4.8165,4.8124,4.8124,4.8123]}]]